Showing default

MIDAS 6 (FTV 1169), 574

Orbit data source: Space-Track

MIDAS 6 (FTV 1169), 574 is a payload satellite owned by USAF SSD (US) in LEO that was launched on Thu, 09 May 1963 UTC via an ATLAS AGENA B launch vehicle from the Air Force Western Test Range (AFWTR). Payload-class satellites include a variety of spacecraft equipped with specific instruments for various scientific and technological missions. These include communications satellites like Starlink; space stations such as the ISS; scientific satellites like the Hubble; Earth observation satellites from companies like Planet Labs, Umbra, and HawkEye 360; GPS; miniature CubeSats for education and research; and military/defense satellites.

Loading next visibility...
Identifier
574, 1963-014A
Orbit
LEO
Country
Flag of USUS
Related business
Manufacturer
LMSC
Mission
Spacecraft
Bus & Motor
MIDAS, Unknown motor
Mass
~1,540 kg wet, ~840 kg dry
Launch date (UTC)
1963-05-09 (63 years ago)
Launch vehicle
ATLAS AGENA B
Launch site
Air Force Western Test Range (AFWTR)
Object type
Payload
Rocket body
Debris
Shape & HBR
Unknown
Radar Cross Section
Large (>1 m²)

Expand to show TLE details & history
Last TLE update: 1 day ago

TLE from 1 day ago
0 MIDAS 6 (FTV 1169)
1 00574U 63014A   25348.10879917 -.00000009  00000-0 -55000-2 0  9997
2 00574  87.3433 213.2527 0030866 300.1332  59.6465  8.65276737201776
Epoch: 2025-12-14T02:36Z
TLE epoch observation values (Epoch: 2025-12-14T02:36:40.248Z)
Latitude
Longitude
91.05856°
Altitude
3,630.735 km
Speed
6.316 km/s
True Right ascension
14h 13m 00s
True Declination
0° 00' 00"
Sunlit
Object was in daylight at epoch
Visualization orbit readout
Latitude
Unknown
Longitude
Unknown
Altitude
Unknown
Speed
Unknown
Apparent Right ascension
Unknown
Apparent Declination
Unknown
Sunlit
N/A
Visualization observer readout
Local Sidereal Time
01:09:40
Azimuth
Unknown
Elevation
Unknown
Doppler factor
Unknown
Orbital elements
Apogee altitude
3,672.863 km
Perigee altitude
3,611.007 km
Semi-major axis
10,020.072 km
Eccentricity
0.00309
Inclination
87.3433°
RAAN
213.2527°
Arg. of periapsis
300.1332°
True anomaly
59.95231°
Mean anomaly
59.6465°
Eccentric anomaly
59.79935°
Mean motion
2.1639 °/min
Orbital period
166.37 mins
BSTAR
-0.0055
Loading maneuver chart data...
Computing Atmospheric mass density...

Documentation

Showing up to 5 results
|